메인 페이지
METAR-TAF:

METAR-TAF

공항 :

Mount Pleasant Regional Airport

Mount Pleasant, 텍사스, 미국

위도: 33-05-43N, 경도: 094-57-41W, 고도: 111m

현재 날씨관측

예보는 20분 전, 21:35시(UTC)에 발표되었습니다.
남남서6kt
온도 20°C
습도 32%
기압 1024 hPa
시정: 8.0km
맑음

METAR: KOSA 192135Z AUTO 21006KT 5SM CLR 20/03 A3023 RMK AO1 T02010026

시각: 16:55 (21:55 UTC)


TAF: 누락

4,000개 이상의 공항 관측 자료 및 예보 (METAR 및 TAF 보고).

지도상에서 검색 가능한 기상관측소가 노란 점과 빨간 점으로 표시되어 있습니다.

기상관측소 명을 보려면 표시 위로 마우스를 이동하세요.

날씨 관측과 예보를 보려면 클릭하세요.

지도 변경 : 확대하려면 엑스 표시가 있는 녹색 버튼, 축소하려면 빼기 표시가 있는 녹색 버튼, 다음 페이지의 지도를 보려면 녹색 화살표를 클릭하세요.


METAR-TAF: